Location: *
(10.4782°N, 67.2163°W)
Time: 00:13:56
(UTC+00:00)

ATLAS 3B R/B - Pass Details

Date: 23 May 2024
Orbit: 942 x 1252 km, 63.8° (Epoch: 15 June)

Event Time Altitude Azimuth Distance (km) Brightness Sun altitude
Rises 00:53:55 0° 357° (N) 4,182 6.2 -29.4°
Reaches altitude 10° 00:57:25 10° 11° (N) 3,199 5.4 -30.1°
Enters shadow 01:01:44 22° 44° (NE) 2,364 4.3 -31.0°
